Tracking 17739 objects as of 25-June-2016
HD Live streaming from Space Station
objects crossing your sky now

SL-16 DEB

Track SL-16 DEB now!
10-day predictions


NORAD ID: 19658
Int'l Code: 1988-102E
Perigee: 845.6 km
Apogee: 1,137.1 km
Inclination: 71.0 °
Period: 104.8 minutes
Semi major axis: 7362 km
RCS: 0.0923 m2 (small)
Launch date: November 23, 1988
Source: Commonwealth of Independent States (former USSR) (CIS)
Launch site: TYURATAM MISSILE AND SPACE COMPLEX (TTMTR)

Note: This is SATELLITE DEBRIS
Your satellite tracking list
Your tracking list is empty





NASA's NSSDC Master Catalog

Two Line Element Set (TLE):
1 19658U 88102E   16176.95702485 +.00000031 +00000-0 +67094-4 0  9993
2 19658 071.0237 055.1556 0197983 166.1852 299.8188 13.74290289382827
Source of the keplerian elements: AFSPC

N2YO: 798